Time,TemperatureF,DewpointF,PressureIn,WindDirection,WindDirectionDegrees,WindSpeedMPH,WindSpeedGustMPH,Humidity,HourlyPrecipIn,Conditions,Clouds,dailyrainin,SoftwareType,DateUTC
2013-09-17 00:07:00,63.0,58.0,30.02,West,270,0.0,-999.0,84,-99.99,,,0.00,Acu-Link.com,2013-09-17 06:07:00,
2013-09-17 00:22:00,62.4,57.5,30.03,West,270,0.0,-999.0,84,-99.99,,,0.00,Acu-Link.com,2013-09-17 06:22:00,
2013-09-17 00:37:00,62.4,57.8,30.03,NNE,22,0.0,-999.0,85,-99.99,,,0.00,Acu-Link.com,2013-09-17 06:37:00,
2013-09-17 00:53:00,61.9,58.0,30.02,ENE,67,0.0,-999.0,87,-99.99,,,0.00,Acu-Link.com,2013-09-17 06:53:00,
2013-09-17 01:08:00,61.3,58.1,30.02,East,90,0.0,-999.0,89,-99.99,,,0.00,Acu-Link.com,2013-09-17 07:08:00,
2013-09-17 01:23:00,62.2,58.0,30.02,NE,45,2.7,-999.0,86,-99.99,,,0.00,Acu-Link.com,2013-09-17 07:23:00,
2013-09-17 01:38:00,62.1,57.8,30.02,ESE,112,1.6,-999.0,86,-99.99,,,0.00,Acu-Link.com,2013-09-17 07:38:00,
2013-09-17 01:53:00,61.7,58.1,30.02,East,90,1.1,-999.0,88,-99.99,,,0.00,Acu-Link.com,2013-09-17 07:53:00,
2013-09-17 02:09:00,61.0,58.0,30.01,NE,45,1.6,-999.0,90,-99.99,,,0.00,Acu-Link.com,2013-09-17 08:09:00,
2013-09-17 02:24:00,60.6,58.0,30.02,ENE,67,2.2,-999.0,91,-99.99,,,0.00,Acu-Link.com,2013-09-17 08:24:00,
2013-09-17 02:39:00,60.6,58.0,30.01,North,0,2.2,-999.0,91,-99.99,,,0.00,Acu-Link.com,2013-09-17 08:39:00,
2013-09-17 02:54:00,61.2,58.5,30.01,NNE,22,0.0,-999.0,91,-99.99,,,0.00,Acu-Link.com,2013-09-17 08:54:00,
2013-09-17 03:09:00,61.0,58.0,30.01,NE,45,2.2,-999.0,90,-99.99,,,0.00,Acu-Link.com,2013-09-17 09:09:00,
2013-09-17 03:25:00,60.6,57.7,30.01,WNW,292,1.1,-999.0,90,-99.99,,,0.00,Acu-Link.com,2013-09-17 09:25:00,
2013-09-17 03:40:00,60.1,57.4,30.00,ENE,67,0.0,-999.0,91,-99.99,,,0.00,Acu-Link.com,2013-09-17 09:40:00,
2013-09-17 03:55:00,59.7,57.7,30.01,ESE,112,0.0,-999.0,93,-99.99,,,0.00,Acu-Link.com,2013-09-17 09:55:00,
2013-09-17 04:10:00,59.2,57.5,30.01,North,0,0.0,-999.0,94,-99.99,,,0.00,Acu-Link.com,2013-09-17 10:10:00,
2013-09-17 04:26:00,58.8,57.7,30.00,WNW,292,0.0,-999.0,96,-99.99,,,0.00,Acu-Link.com,2013-09-17 10:26:00,
2013-09-17 04:41:00,58.3,57.4,30.00,ESE,112,0.0,-999.0,97,-99.99,,,0.00,Acu-Link.com,2013-09-17 10:41:00,
2013-09-17 04:56:00,57.7,57.2,30.01,ESE,112,0.0,-999.0,98,-99.99,,,0.00,Acu-Link.com,2013-09-17 10:56:00,
2013-09-17 05:11:00,57.6,57.3,30.01,NE,45,0.0,-999.0,99,-99.99,,,0.00,Acu-Link.com,2013-09-17 11:11:00,
2013-09-17 05:26:00,57.9,57.6,30.00,NNE,22,2.7,-999.0,99,-99.99,,,0.00,Acu-Link.com,2013-09-17 11:26:00,
2013-09-17 05:42:00,58.1,57.5,30.00,NE,45,0.0,-999.0,98,-99.99,,,0.00,Acu-Link.com,2013-09-17 11:42:00,
2013-09-17 05:57:00,58.5,57.3,30.01,NW,315,2.7,-999.0,96,-99.99,,,0.00,Acu-Link.com,2013-09-17 11:57:00,
2013-09-17 06:12:00,58.8,57.4,30.01,NW,315,1.6,-999.0,95,-99.99,,,0.00,Acu-Link.com,2013-09-17 12:12:00,
2013-09-17 06:27:00,58.8,57.4,30.01,NW,315,0.0,-999.0,95,-99.99,,,0.00,Acu-Link.com,2013-09-17 12:27:00,
2013-09-17 06:42:00,58.8,57.1,30.02,NNE,22,2.2,-999.0,94,-99.99,,,0.00,Acu-Link.com,2013-09-17 12:42:00,
2013-09-17 06:57:00,59.0,57.3,30.02,NNW,337,1.6,-999.0,94,-99.99,,,0.00,Acu-Link.com,2013-09-17 12:57:00,
2013-09-17 07:13:00,59.7,57.4,30.02,North,0,5.8,-999.0,92,-99.99,,,0.00,Acu-Link.com,2013-09-17 13:13:00,
2013-09-17 07:28:00,61.2,58.2,30.02,NNE,22,3.1,-999.0,90,-99.99,,,0.00,Acu-Link.com,2013-09-17 13:28:00,
2013-09-17 07:43:00,62.2,58.3,30.03,NNW,337,3.1,-999.0,87,-99.99,,,0.00,Acu-Link.com,2013-09-17 13:43:00,
2013-09-17 07:58:00,66.9,59.1,30.02,ENE,67,4.3,-999.0,76,-99.99,,,0.00,Acu-Link.com,2013-09-17 13:58:00,
2013-09-17 08:13:00,67.6,59.4,30.03,ENE,67,3.1,-999.0,75,-99.99,,,0.00,Acu-Link.com,2013-09-17 14:13:00,
2013-09-17 08:29:00,70.2,59.5,30.03,ENE,67,4.7,-999.0,69,-99.99,,,0.00,Acu-Link.com,2013-09-17 14:29:00,
2013-09-17 08:44:00,71.1,60.0,30.03,NW,315,3.1,-999.0,68,-99.99,,,0.00,Acu-Link.com,2013-09-17 14:44:00,
2013-09-17 08:59:00,68.0,59.0,30.03,NE,45,4.3,-999.0,73,-99.99,,,0.00,Acu-Link.com,2013-09-17 14:59:00,
2013-09-17 09:14:00,67.6,59.0,30.02,North,0,3.8,-999.0,74,-99.99,,,0.00,Acu-Link.com,2013-09-17 15:14:00,
2013-09-17 09:29:00,69.3,59.4,30.03,East,90,2.7,-999.0,71,-99.99,,,0.00,Acu-Link.com,2013-09-17 15:29:00,
2013-09-17 09:45:00,70.2,59.5,30.02,WNW,292,4.3,-999.0,69,-99.99,,,0.00,Acu-Link.com,2013-09-17 15:45:00,
2013-09-17 10:00:00,71.2,60.1,30.02,NNW,337,2.7,-999.0,68,-99.99,,,0.00,Acu-Link.com,2013-09-17 16:00:00,
2013-09-17 10:15:00,72.7,59.8,30.02,SE,135,2.7,-999.0,64,-99.99,,,0.00,Acu-Link.com,2013-09-17 16:15:00,
2013-09-17 10:30:00,73.8,59.5,30.02,SSW,202,5.1,-999.0,61,-99.99,,,0.00,Acu-Link.com,2013-09-17 16:30:00,
2013-09-17 10:45:00,75.2,59.4,30.02,SSE,157,4.7,-999.0,58,-99.99,,,0.00,Acu-Link.com,2013-09-17 16:45:00,
2013-09-17 10:46:00,75.2,59.4,30.02,SSE,157,4.7,-999.0,58,-99.99,,,0.00,Acu-Link.com,2013-09-17 16:46:00,
2013-09-17 11:01:00,75.2,59.9,30.01,SSW,202,3.1,-999.0,59,-99.99,,,0.00,Acu-Link.com,2013-09-17 17:01:00,
2013-09-17 11:16:00,76.6,59.7,30.01,East,90,6.7,-999.0,56,-99.99,,,0.00,Acu-Link.com,2013-09-17 17:16:00,
2013-09-17 11:31:00,76.1,59.7,30.00,South,180,3.8,-999.0,57,-99.99,,,0.00,Acu-Link.com,2013-09-17 17:31:00,
2013-09-17 11:46:00,78.8,59.7,30.00,SE,135,4.3,-999.0,52,-99.99,,,0.00,Acu-Link.com,2013-09-17 17:46:00,
2013-09-17 12:02:00,78.8,59.7,30.00,South,180,2.2,-999.0,52,-99.99,,,0.00,Acu-Link.com,2013-09-17 18:02:00,
2013-09-17 12:17:00,79.2,59.5,29.99,SSE,157,8.3,-999.0,51,-99.99,,,0.00,Acu-Link.com,2013-09-17 18:17:00,
2013-09-17 12:32:00,80.1,59.7,29.97,South,180,6.3,-999.0,50,-99.99,,,0.00,Acu-Link.com,2013-09-17 18:32:00,
2013-09-17 12:47:00,80.1,59.2,29.97,SSE,157,5.1,-999.0,49,-99.99,,,0.00,Acu-Link.com,2013-09-17 18:47:00,
2013-09-17 13:02:00,80.4,60.1,29.96,SW,225,3.1,-999.0,50,-99.99,,,0.00,Acu-Link.com,2013-09-17 19:02:00,
2013-09-17 13:18:00,81.3,59.1,29.94,SE,135,3.8,-999.0,47,-99.99,,,0.00,Acu-Link.com,2013-09-17 19:18:00,
2013-09-17 13:33:00,81.1,59.0,29.94,SSE,157,4.3,-999.0,47,-99.99,,,0.00,Acu-Link.com,2013-09-17 19:33:00,
2013-09-17 13:48:00,81.3,59.1,29.93,SW,225,2.2,-999.0,47,-99.99,,,0.00,Acu-Link.com,2013-09-17 19:48:00,
2013-09-17 14:03:00,81.3,57.9,29.92,SSE,157,9.8,-999.0,45,-99.99,,,0.00,Acu-Link.com,2013-09-17 20:03:00,
2013-09-17 14:18:00,80.2,57.6,29.91,East,90,7.8,-999.0,46,-99.99,,,0.00,Acu-Link.com,2013-09-17 20:18:00,
2013-09-17 14:34:00,82.6,58.4,29.91,SSW,202,2.2,-999.0,44,-99.99,,,0.00,Acu-Link.com,2013-09-17 20:34:00,
2013-09-17 14:49:00,82.8,58.0,29.90,SE,135,7.8,-999.0,43,-99.99,,,0.00,Acu-Link.com,2013-09-17 20:49:00,
2013-09-17 15:04:00,82.9,56.8,29.89,South,180,6.7,-999.0,41,-99.99,,,0.00,Acu-Link.com,2013-09-17 21:04:00,
2013-09-17 15:19:00,82.4,55.6,29.88,South,180,9.8,-999.0,40,-99.99,,,0.00,Acu-Link.com,2013-09-17 21:19:00,
2013-09-17 15:35:00,81.5,55.5,29.87,SW,225,3.1,-999.0,41,-99.99,,,0.00,Acu-Link.com,2013-09-17 21:35:00,
2013-09-17 15:50:00,82.2,54.8,29.87,South,180,4.7,-999.0,39,-99.99,,,0.00,Acu-Link.com,2013-09-17 21:50:00,
2013-09-17 16:05:00,82.8,55.2,29.85,SSW,202,5.1,-999.0,39,-99.99,,,0.00,Acu-Link.com,2013-09-17 22:05:00,
2013-09-17 16:20:00,81.9,54.4,29.84,SSE,157,7.8,-999.0,39,-99.99,,,0.00,Acu-Link.com,2013-09-17 22:20:00,
2013-09-17 16:35:00,82.2,54.8,29.84,South,180,4.3,-999.0,39,-99.99,,,0.00,Acu-Link.com,2013-09-17 22:35:00,
2013-09-17 16:51:00,81.5,54.1,29.84,South,180,6.3,-999.0,39,-99.99,,,0.00,Acu-Link.com,2013-09-17 22:51:00,
2013-09-17 17:06:00,81.5,53.4,29.84,SSE,157,5.8,-999.0,38,-99.99,,,0.00,Acu-Link.com,2013-09-17 23:06:00,
2013-09-17 17:21:00,80.8,54.2,29.84,South,180,3.8,-999.0,40,-99.99,,,0.00,Acu-Link.com,2013-09-17 23:21:00,
2013-09-17 17:36:00,81.0,53.6,29.83,South,180,6.3,-999.0,39,-99.99,,,0.00,Acu-Link.com,2013-09-17 23:36:00,
2013-09-17 17:57:00,82.2,55.5,29.83,SSW,202,7.8,-999.0,40,-99.99,,,0.00,Acu-Link.com,2013-09-17 23:57:00,
2013-09-17 18:12:00,81.9,55.1,29.83,SSE,157,2.2,-999.0,40,-99.99,,,0.00,Acu-Link.com,2013-09-18 00:12:00,
2013-09-17 18:28:00,79.3,54.9,29.83,SW,225,3.8,-999.0,43,-99.99,,,0.00,Acu-Link.com,2013-09-18 00:28:00,
2013-09-17 18:43:00,79.5,55.7,29.82,South,180,3.1,-999.0,44,-99.99,,,0.00,Acu-Link.com,2013-09-18 00:43:00,
2013-09-17 18:58:00,78.4,55.9,29.83,South,180,2.7,-999.0,46,-99.99,,,0.00,Acu-Link.com,2013-09-18 00:58:00,
2013-09-17 19:13:00,77.2,56.0,29.82,SSE,157,2.7,-999.0,48,-99.99,,,0.00,Acu-Link.com,2013-09-18 01:13:00,
2013-09-17 19:28:00,76.5,56.4,29.82,South,180,3.8,-999.0,50,-99.99,,,0.00,Acu-Link.com,2013-09-18 01:28:00,
2013-09-17 19:44:00,75.9,56.5,29.83,South,180,3.1,-999.0,51,-99.99,,,0.00,Acu-Link.com,2013-09-18 01:44:00,
2013-09-17 19:59:00,75.4,57.0,29.84,SW,225,2.7,-999.0,53,-99.99,,,0.00,Acu-Link.com,2013-09-18 01:59:00,
2013-09-17 20:14:00,74.8,57.1,29.84,SW,225,4.3,-999.0,54,-99.99,,,0.00,Acu-Link.com,2013-09-18 02:14:00,
2013-09-17 20:29:00,74.3,57.1,29.85,SSW,202,3.8,-999.0,55,-99.99,,,0.00,Acu-Link.com,2013-09-18 02:29:00,
2013-09-17 20:44:00,73.8,57.6,29.86,SSW,202,2.7,-999.0,57,-99.99,,,0.00,Acu-Link.com,2013-09-18 02:44:00,
2013-09-17 21:00:00,72.9,57.2,29.85,South,180,4.3,-999.0,58,-99.99,,,0.00,Acu-Link.com,2013-09-18 03:00:00,
2013-09-17 21:30:00,71.2,57.5,29.86,SSW,202,2.2,-999.0,62,-99.99,,,0.00,Acu-Link.com,2013-09-18 03:30:00,
2013-09-17 21:45:00,70.5,57.3,29.87,SSW,202,2.2,-999.0,63,-99.99,,,0.00,Acu-Link.com,2013-09-18 03:45:00,
2013-09-17 22:01:00,70.0,57.2,29.87,South,180,2.2,-999.0,64,-99.99,,,0.00,Acu-Link.com,2013-09-18 04:01:00,
2013-09-17 22:16:00,69.3,57.4,29.87,South,180,2.2,-999.0,66,-99.99,,,0.00,Acu-Link.com,2013-09-18 04:16:00,
2013-09-17 22:31:00,68.9,57.5,29.88,South,180,0.0,-999.0,67,-99.99,,,0.00,Acu-Link.com,2013-09-18 04:31:00,
2013-09-17 22:46:00,68.9,57.9,29.88,SSW,202,0.0,-999.0,68,-99.99,,,0.00,Acu-Link.com,2013-09-18 04:46:00,
2013-09-17 23:01:00,68.9,57.9,29.88,South,180,1.6,-999.0,68,-99.99,,,0.00,Acu-Link.com,2013-09-18 05:01:00,
2013-09-17 23:17:00,68.5,58.0,29.88,SSW,202,2.2,-999.0,69,-99.99,,,0.00,Acu-Link.com,2013-09-18 05:17:00,
2013-09-17 23:32:00,67.8,57.7,29.87,SSW,202,0.0,-999.0,70,-99.99,,,0.00,Acu-Link.com,2013-09-18 05:32:00,
2013-09-17 23:47:00,66.9,58.0,29.88,SSW,202,0.0,-999.0,73,-99.99,,,0.00,Acu-Link.com,2013-09-18 05:47:00,